Hourly Weather Río Gallegos

Today, 26 November, Thursday

Time Temperature Precipitation Wind Pressure Humidity
00:00 +3°C° 0 mm 9 mps 749 mmHg 63%
01:00 +3°C° 0 mm 9 mps 749 mmHg 66%
02:00 +4°C° 0 mm 8 mps 748 mmHg 64%
03:00 +4°C° 0 mm 7 mps 748 mmHg 63%
04:00 +4°C° 0 mm 7 mps 748 mmHg 62%
05:00 +6°C° 0 mm 7 mps 748 mmHg 56%
06:00 +7°C° 0 mm 8 mps 747 mmHg 51%
07:00 +8°C° 0 mm 9 mps 747 mmHg 46%
08:00 +11°C° 0 mm 8 mps 746 mmHg 42%
09:00 +12°C° 0 mm 8 mps 746 mmHg 37%
10:00 +15°C° 0 mm 7 mps 745 mmHg 33%
11:00 +16°C° 0 mm 7 mps 744 mmHg 31%
12:00 +16°C° 0 mm 7 mps 743 mmHg 30%
13:00 +17°C° 0 mm 7 mps 743 mmHg 28%
14:00 +17°C° 0 mm 7 mps 742 mmHg 30%
15:00 +17°C° 0 mm 8 mps 741 mmHg 31%
16:00 +17°C° 0 mm 8 mps 740 mmHg 32%
17:00 +16°C° 0 mm 8 mps 739 mmHg 35%
18:00 +16°C° 0 mm 7 mps 738 mmHg 37%
19:00 +15°C° 0 mm 6 mps 737 mmHg 39%
20:00 +15°C° 0 mm 6 mps 736 mmHg 41%
21:00 +14°C° 0 mm 7 mps 735 mmHg 43%
22:00 +12°C° 0 mm 7 mps 734 mmHg 45%
23:00 +12°C° 0 mm 7 mps 734 mmHg 49%

Tomorrow, 27 November, Friday

Time Temperature Precipitation Wind Pressure Humidity
00:00 +11°C° 0 mm 8 mps 733 mmHg 53%
01:00 +10°C° 0 mm 8 mps 733 mmHg 57%
02:00 +8°C° 0 mm 10 mps 733 mmHg 60%
03:00 +8°C° 0 mm 12 mps 734 mmHg 63%
04:00 +7°C° 0 mm 13 mps 734 mmHg 66%
05:00 +6°C° 0 mm 15 mps 735 mmHg 57%
06:00 +7°C° 0 mm 16 mps 736 mmHg 47%
07:00 +7°C° 0 mm 17 mps 736 mmHg 38%
08:00 +7°C° 0 mm 17 mps 737 mmHg 36%
09:00 +9°C° 0 mm 18 mps 737 mmHg 33%
10:00 +10°C° 0 mm 18 mps 737 mmHg 31%
11:00 +10°C° 0 mm 17 mps 738 mmHg 31%
12:00 +10°C° 0 mm 17 mps 738 mmHg 30%
13:00 +10°C° 0 mm 17 mps 738 mmHg 30%
14:00 +10°C° 0 mm 17 mps 739 mmHg 30%
15:00 +9°C° 0 mm 17 mps 739 mmHg 30%
16:00 +9°C° 0 mm 17 mps 739 mmHg 30%
17:00 +7°C° 0 mm 17 mps 740 mmHg 34%
18:00 +6°C° 0 mm 16 mps 741 mmHg 37%
19:00 +5°C° 0 mm 15 mps 742 mmHg 40%
20:00 +4°C° 0 mm 14 mps 742 mmHg 44%
21:00 +3°C° 0 mm 13 mps 743 mmHg 49%
22:00 +1°C° 0 mm 13 mps 743 mmHg 53%
23:00 +1°C° 0 mm 13 mps 744 mmHg 54%

Day after tomorrow, 28 November, Saturday

Time Temperature Precipitation Wind Pressure Humidity
00:00 +1°C° 0 mm 14 mps 744 mmHg 56%
01:00 +1°C° 0 mm 14 mps 745 mmHg 58%
02:00 0°C° 0 mm 13 mps 745 mmHg 60%
03:00 0°C° 0 mm 13 mps 746 mmHg 61%
04:00 0°C° 0 mm 12 mps 746 mmHg 63%
05:00 +1°C° 0 mm 13 mps 747 mmHg 57%
06:00 +4°C° 0 mm 14 mps 747 mmHg 51%
07:00 +5°C° 0 mm 15 mps 748 mmHg 45%
08:00 +5°C° 0 mm 15 mps 748 mmHg 43%
09:00 +6°C° 0 mm 15 mps 748 mmHg 41%
10:00 +8°C° 0 mm 15 mps 748 mmHg 39%
11:00 +8°C° 0.1 mm 15 mps 748 mmHg 40%
12:00 +8°C° 0.1 mm 14 mps 748 mmHg 41%
13:00 +9°C° 0.1 mm 14 mps 748 mmHg 41%
14:00 +9°C° 0 mm 13 mps 748 mmHg 42%
15:00 +9°C° 0 mm 12 mps 748 mmHg 42%
16:00 +9°C° 0 mm 12 mps 748 mmHg 43%
17:00 +8°C° 0 mm 11 mps 748 mmHg 42%
18:00 +8°C° 0 mm 10 mps 747 mmHg 40%
19:00 +8°C° 0 mm 9 mps 747 mmHg 39%
20:00 +9°C° 0 mm 8 mps 747 mmHg 41%
21:00 +8°C° 0 mm 7 mps 747 mmHg 42%
22:00 +8°C° 0 mm 6 mps 747 mmHg 43%
23:00 +6°C° 0 mm 7 mps 747 mmHg 49%

29 November, Sunday

Time Temperature Precipitation Wind Pressure Humidity
00:00 +5°C° 0 mm 8 mps 747 mmHg 55%
01:00 +4°C° 0 mm 8 mps 747 mmHg 61%
02:00 +3°C° 0 mm 9 mps 747 mmHg 66%
03:00 +2°C° 0 mm 9 mps 747 mmHg 70%
04:00 +2°C° 0 mm 9 mps 748 mmHg 74%
05:00 +3°C° 0 mm 10 mps 748 mmHg 68%
06:00 +4°C° 0 mm 12 mps 749 mmHg 61%
07:00 +5°C° 0 mm 13 mps 749 mmHg 55%
08:00 +7°C° 0.1 mm 13 mps 750 mmHg 50%
09:00 +8°C° 0.1 mm 13 mps 750 mmHg 46%
10:00 +9°C° 0.1 mm 14 mps 750 mmHg 42%
11:00 +10°C° 0 mm 14 mps 751 mmHg 42%
12:00 +10°C° 0 mm 14 mps 751 mmHg 42%
13:00 +10°C° 0 mm 15 mps 752 mmHg 42%
14:00 +10°C° 0 mm 15 mps 752 mmHg 42%
15:00 +10°C° 0 mm 15 mps 752 mmHg 43%
16:00 +10°C° 0 mm 15 mps 753 mmHg 43%
17:00 +9°C° 0 mm 14 mps 753 mmHg 46%
18:00 +8°C° 0 mm 13 mps 754 mmHg 49%
19:00 +8°C° 0 mm 12 mps 754 mmHg 52%
20:00 +8°C° 0 mm 11 mps 754 mmHg 53%
21:00 +7°C° 0 mm 9 mps 754 mmHg 54%
22:00 +8°C° 0 mm 7 mps 754 mmHg 55%
23:00 +8°C° 0 mm 6 mps 753 mmHg 54%

30 November, Monday

Time Temperature Precipitation Wind Pressure Humidity
00:00 +9°C° 0 mm 5 mps 753 mmHg 52%
01:00 +10°C° 0 mm 4 mps 752 mmHg 51%
02:00 +10°C° 0 mm 4 mps 752 mmHg 51%
03:00 +8°C° 0 mm 5 mps 751 mmHg 51%
04:00 +8°C° 0 mm 5 mps 751 mmHg 51%
05:00 +9°C° 0 mm 6 mps 750 mmHg 47%
06:00 +10°C° 0 mm 7 mps 750 mmHg 44%
07:00 +11°C° 0 mm 8 mps 750 mmHg 40%
08:00 +12°C° 0 mm 9 mps 749 mmHg 39%
09:00 +13°C° 0 mm 11 mps 749 mmHg 38%
10:00 +14°C° 0 mm 12 mps 748 mmHg 37%
11:00 +14°C° 0 mm 13 mps 748 mmHg 38%
12:00 +14°C° 0 mm 14 mps 748 mmHg 39%
13:00 +14°C° 0 mm 16 mps 748 mmHg 41%
14:00 +14°C° 0 mm 15 mps 748 mmHg 41%
15:00 +14°C° 0 mm 14 mps 748 mmHg 41%
16:00 +14°C° 0 mm 14 mps 748 mmHg 41%
17:00 +14°C° 0 mm 13 mps 748 mmHg 42%
18:00 +14°C° 0 mm 12 mps 747 mmHg 42%
19:00 +13°C° 0 mm 12 mps 747 mmHg 43%
20:00 +13°C° 0 mm 10 mps 747 mmHg 45%
21:00 +12°C° 0 mm 9 mps 747 mmHg 46%
22:00 +12°C° 0 mm 7 mps 747 mmHg 48%
23:00 +11°C° 0 mm 6 mps 747 mmHg 50%

1 December, Tuesday

Time Temperature Precipitation Wind Pressure Humidity
00:00 +11°C° 0 mm 6 mps 746 mmHg 51%
01:00 +10°C° 0 mm 5 mps 745 mmHg 53%
02:00 +10°C° 0 mm 6 mps 745 mmHg 53%
03:00 +10°C° 0 mm 6 mps 744 mmHg 53%
04:00 +9°C° 0 mm 7 mps 744 mmHg 53%
05:00 +10°C° 0 mm 8 mps 744 mmHg 52%
06:00 +11°C° 0 mm 9 mps 743 mmHg 52%
07:00 +12°C° 0 mm 10 mps 743 mmHg 52%
08:00 +12°C° 0 mm 11 mps 743 mmHg 50%
09:00 +13°C° 0 mm 13 mps 743 mmHg 47%
10:00 +13°C° 0 mm 14 mps 742 mmHg 45%
11:00 +13°C° 0 mm 14 mps 743 mmHg 42%
12:00 +13°C° 0 mm 14 mps 743 mmHg 40%
13:00 +13°C° 0 mm 14 mps 743 mmHg 37%
14:00 +11°C° 0 mm 15 mps 744 mmHg 37%
15:00 +10°C° 0 mm 16 mps 745 mmHg 37%
16:00 +10°C° 0 mm 16 mps 746 mmHg 37%
17:00 +9°C° 0 mm 15 mps 747 mmHg 38%
18:00 +8°C° 0 mm 14 mps 747 mmHg 40%
19:00 +7°C° 0 mm 13 mps 748 mmHg 41%
20:00 +5°C° 0 mm 12 mps 749 mmHg 46%
21:00 +4°C° 0 mm 11 mps 750 mmHg 51%
22:00 +3°C° 0 mm 10 mps 751 mmHg 56%
23:00 +3°C° 0 mm 10 mps 751 mmHg 58%
Show more

We Need Your Consent

Meteoprog and our Service Providers may store and access personal data such as cookies, device identifiers or other similar technologies on your device and process such data to personalise content and ads, as well as provide social media features and to analyse the traffic.

  • Store and/or access information on your device

    Cookies, device identifiers or other information can be stored or accessed on your device for the purposes indicated above.

  • Personalised ads and content, ad and content measurement, audience insights, and products development

    Ads and content can be personalised based on a profile. More data can be added to better personalise ads and content. Ad and content performance can be measured. Insights about the audience who saw the ads and content can be derived. Such data can be used to develop or improve user’s experience, systems and software.

By clicking ‘I Agree’ you will allow the use of indicated cookies, device identifiers, web beacons or other similar technologies. Your settings can be changed in the browser on your device.

For certain purposes, legitimate interests may be relied on, rather than consent. You can read more about this in our Privacy and Cookie Policy.